[[{"header":{"parameterUnit":"m.s-1","parameterCategory":1,"la1":30.2991,"la2":30.254,"lo1":-89.0895,"lo2":-89.0444,"dy":0.0017,"dx":0.0017,"nx":28,"ny":28,"refTime":"2025-09-16T09:00:00:Z","depth":0,"parameterNumber":2,"parameterNumberName":"U-component_of_WINDS"},"data":[0,0,0,0,0,0,0,0,0,0,0,0,0,0,0,0,0,0,0,0,0,0,0,0,0,0,0,0,0,0,0,0,0,0,0,0,0,0,0,0,0,0,0,0,0,0,0,0,0,0,0,0,0,0,0,0,0,0,1.873,1.873,0,1.8756,1.8756,1.8757,1.8707,1.8705,1.8704,1.8702,1.873,1.8732,1.8734,0,0,0,0,0,0,0,0,0,0,0,0,0,1.8636,1.8638,1.873,1.873,1.873,1.8756,1.8756,1.8757,1.8707,1.8705,1.8703,1.8701,1.8729,1.8732,1.8735,0,0,0,0,0,0,0,0,0,0,0,0,0,1.8671,1.8639,1.873,1.8709,1.8707,1.8756,1.8756,1.8757,1.8708,1.8705,1.8703,1.8701,1.8728,1.8732,1.8735,1.8805,0,0,1.8745,1.8747,0,0,0,0,0,0,0,0,1.8669,1.8674,1.8712,1.871,1.8709,1.8726,1.8733,1.8773,1.8708,1.8708,1.8702,1.8699,1.8731,1.8734,1.8744,1.8807,1.8808,1.8746,1.8748,1.8749,1.875,0,0,0,0,0,0,0,1.8667,1.8673,1.874,1.8712,1.871,1.8698,1.87,1.8741,1.8733,1.8707,1.8704,1.8708,1.8729,1.8741,1.8744,1.8808,1.8746,1.8749,1.8751,1.8752,1.8926,1.8929,0,0,0,0,0,0,1.8667,1.8671,1.8739,1.8741,1.8682,1.8702,1.8704,1.8723,1.8732,1.8731,1.871,1.8705,1.8736,1.874,1.8745,1.8825,1.8749,1.8752,1.8754,1.8924,1.8927,1.893,0,0,0,0,0,0,1.8665,1.8673,1.8738,1.8705,1.8712,1.8706,1.8727,1.8725,1.8736,1.8734,1.8732,1.8723,1.8734,1.874,1.879,1.8825,1.8754,1.8757,1.8921,1.8925,1.8928,1.8988,0,0,0,0,0,0,1.8663,1.8673,1.87,1.8706,1.8714,1.8783,1.873,1.8727,1.8742,1.8736,1.8746,1.8745,1.8733,1.8785,1.8793,1.8829,1.876,1.8917,1.8923,1.8927,1.8983,1.8993,1.9002,0,0,0,0,0,1.8659,1.8717,1.8702,1.871,1.8748,1.8785,1.879,1.8775,1.8745,1.8772,1.877,1.8745,1.8821,1.8791,1.8799,1.8837,1.8915,1.8921,1.8927,1.8978,1.8991,1.9002,0,0,0,0,0,0,1.8717,1.8717,1.8701,1.8762,1.8774,1.8777,1.881,1.879,1.881,1.8804,1.8785,1.8787,1.884,1.8844,1.881,1.8903,1.8863,1.8871,1.8899,1.8911,1.8921,1.8918,1.8763,0,0,0,0,0,1.8736,1.8766,1.8766,1.882,1.8826,1.8817,1.8833,1.882,1.8832,1.8837,1.8838,1.8851,1.8877,1.8895,1.8919,1.8984,1.8983,1.9013,1.9023,1.9031,1.9038,1.9068,1.9081,1.8949,1.8949,1.8949,0,0,1.8777,1.8781,1.8802,1.8831,1.8839,1.8869,1.8822,1.8857,1.8879,1.8842,1.8888,1.889,1.8902,1.8958,1.8983,1.8963,1.9074,1.9039,1.9045,1.9047,1.9076,1.9088,1.9099,1.8953,1.8952,1.8951,0,0,1.8867,1.8874,1.8918,1.8926,1.8938,1.8931,1.8942,1.8947,1.8947,1.8992,1.8964,1.899,1.9037,1.9045,1.9056,1.9147,1.9123,1.9155,1.9206,1.9236,1.9247,1.9256,1.9285,1.9296,1.9162,1.9162,1.9162,0,1.8916,1.8961,1.8944,1.898,1.8992,1.8959,1.9002,1.9011,1.9031,1.904,1.9017,1.9072,1.9079,1.9135,1.9156,1.9167,1.9177,1.9153,1.9247,1.9256,1.9264,1.9291,1.9303,1.9166,1.9165,1.9165,1.9165,0,1.902,1.9051,1.9086,1.9103,1.912,1.916,1.9147,1.9166,1.9151,1.9147,1.9192,1.9198,1.9222,1.9235,1.9222,1.9288,1.9275,1.925,1.9208,1.928,1.9305,1.9316,1.9171,1.917,1.9169,1.9168,0,0,1.9147,1.9152,1.9164,1.917,1.918,1.9203,1.9241,1.9263,1.9278,1.9293,1.9322,1.9361,1.9337,1.9349,1.9336,1.9363,1.943,1.9334,1.9334,1.9349,1.9501,1.9517,1.953,1.9416,1.9418,1.9419,1.9498,0,1.9233,1.9296,1.928,1.9343,1.937,1.9338,1.937,1.9378,1.9375,1.9397,1.9394,1.942,1.9388,1.9394,1.942,1.9417,1.946,1.9411,1.9441,1.9442,1.9436,1.9544,1.9562,1.9636,1.9509,1.951,1.9512,0,1.9342,1.9358,1.9423,1.9424,1.9435,1.9464,1.9481,1.9503,1.9512,1.9507,1.952,1.9501,1.9537,1.9496,1.9544,1.9511,1.9522,1.9523,1.9525,1.9525,1.948,1.9544,1.966,1.967,1.9528,1.9526,1.9525,0,1.9424,1.9462,1.9504,1.9511,1.9515,1.9535,1.9538,1.9544,1.9557,1.9573,1.958,1.96,1.9611,1.9626,1.9613,1.9585,1.9661,1.9621,1.9657,1.9657,1.9673,1.9671,1.9789,1.9685,1.9685,1.9685,1.9684,0,1.952,1.956,1.954,1.9567,1.961,1.9591,1.9634,1.9633,1.9638,1.9663,1.9638,1.9661,1.9643,1.9665,1.9655,1.9694,1.97,1.9696,1.9692,1.9697,1.9697,1.9702,1.9696,1.9688,1.9687,1.9686,1.9686,0,1.9618,1.9607,1.9651,1.965,1.965,1.9682,1.9681,1.9704,1.9698,1.9729,1.9736,1.9726,1.975,1.9739,1.9765,1.9758,1.9807,1.9798,1.9804,1.98,1.9836,1.9831,1.9959,1.9974,1.9863,1.9864,1.9865,0,1.9679,1.9709,1.971,1.9724,1.9728,1.9751,1.9763,1.9746,1.976,1.977,1.9792,1.9813,1.9829,1.9869,1.9864,1.9883,1.9873,1.9916,1.9875,1.9878,1.9869,1.9867,1.9868,1.9924,1.9925,1.9926,1.9927,0,1.9788,1.978,1.9798,1.9814,1.9829,1.9841,1.9851,1.9864,1.9846,1.9863,1.9886,1.9898,1.9923,1.9944,1.996,1.9962,1.9941,1.994,1.9948,1.9952,1.9952,1.9949,1.9823,1.9937,1.9936,1.9935,1.9934,1.9934,1.9867,1.989,1.9894,1.9914,1.9919,1.9928,1.9949,1.9944,1.9963,1.9981,1.997,1.9996,2.0002,2.0021,2.0026,2.0046,2.0028,2.0042,2.0045,2.0048,2.0051,1.9951,2.0049,2.0049,2.0049,2.0048,2.0048,0,1.9971,1.9971,1.999,2.0003,2.0019,1.9997,2.0006,2.002,2.0043,2.005,2.0065,2.0091,2.011,2.0107,2.0124,2.0141,2.0131,2.0146,2.0143,2.0143,2.0067,2.0056,2.0153,2.0153,2.0153,2.0153,2.0153,2.0153,2.0027,2.0064,2.0056,2.0094,2.0094,2.0119,2.0125,2.0133,2.0137,2.0166,2.0182,2.0179,2.0181,2.0197,2.0214,2.0212,2.0218,2.0236,2.0231,2.0159,2.0149,2.0139,2.0128,2.0238,2.0238,2.0304,2.0305,2.0305]},{"header":{"parameterUnit":"m.s-1","parameterCategory":1,"la1":30.2991,"la2":30.254,"lo1":-89.0895,"lo2":-89.0444,"dy":0.0017,"dx":0.0017,"nx":28,"ny":28,"refTime":"2025-09-16T09:00:00:Z","depth":0,"parameterNumber":3,"parameterNumberName":"V-component_of_WINDS"},"data":[0,0,0,0,0,0,0,0,0,0,0,0,0,0,0,0,0,0,0,0,0,0,0,0,0,0,0,0,0,0,0,0,0,0,0,0,0,0,0,0,0,0,0,0,0,0,0,0,0,0,0,0,0,0,0,0,0,0,-0.5233,-0.5234,0,-0.5259,-0.526,-0.526,-0.5268,-0.5268,-0.5268,-0.5268,-0.5293,-0.5294,-0.5295,0,0,0,0,0,0,0,0,0,0,0,0,0,-0.519,-0.5191,-0.5233,-0.5234,-0.5234,-0.5259,-0.526,-0.526,-0.5268,-0.5268,-0.5268,-0.5268,-0.5293,-0.5294,-0.5295,0,0,0,0,0,0,0,0,0,0,0,0,0,-0.5212,-0.5191,-0.5233,-0.5241,-0.5242,-0.5259,-0.526,-0.526,-0.5268,-0.5268,-0.5268,-0.5268,-0.5293,-0.5294,-0.5295,-0.5306,0,0,-0.5299,-0.5299,0,0,0,0,0,0,0,0,-0.5211,-0.5213,-0.524,-0.5241,-0.5242,-0.526,-0.5254,-0.5276,-0.5268,-0.5258,-0.5268,-0.5268,-0.5282,-0.5284,-0.529,-0.5307,-0.5308,-0.5299,-0.5299,-0.53,-0.53,0,0,0,0,0,0,0,-0.5209,-0.5212,-0.5244,-0.524,-0.5241,-0.5243,-0.5246,-0.5258,-0.5271,-0.5259,-0.526,-0.5263,-0.5283,-0.5289,-0.529,-0.5309,-0.5299,-0.53,-0.53,-0.5301,-0.5338,-0.5338,0,0,0,0,0,0,-0.5206,-0.5211,-0.5243,-0.5244,-0.5225,-0.5244,-0.5247,-0.5255,-0.5271,-0.5273,-0.5263,-0.5263,-0.5287,-0.5289,-0.5291,-0.5306,-0.53,-0.5301,-0.5302,-0.5338,-0.5338,-0.5338,0,0,0,0,0,0,-0.5205,-0.5209,-0.5242,-0.5228,-0.5232,-0.5245,-0.5253,-0.5255,-0.5261,-0.5274,-0.5276,-0.5266,-0.5287,-0.529,-0.5303,-0.5307,-0.5302,-0.5303,-0.5337,-0.5338,-0.5338,-0.5335,0,0,0,0,0,0,-0.5204,-0.5209,-0.5213,-0.5228,-0.5233,-0.5253,-0.5253,-0.5256,-0.5263,-0.5263,-0.5278,-0.528,-0.5287,-0.5301,-0.5304,-0.5309,-0.5304,-0.5337,-0.5338,-0.5338,-0.5335,-0.5335,-0.5336,0,0,0,0,0,-0.5203,-0.521,-0.5213,-0.5217,-0.5239,-0.5253,-0.5256,-0.5264,-0.5263,-0.5268,-0.5276,-0.5279,-0.5306,-0.5302,-0.5306,-0.5311,-0.5337,-0.5337,-0.5338,-0.5335,-0.5335,-0.5336,0,0,0,0,0,0,-0.5194,-0.5212,-0.5216,-0.5229,-0.5239,-0.5254,-0.526,-0.5264,-0.5275,-0.5275,-0.5284,-0.5287,-0.53,-0.5307,-0.5302,-0.5323,-0.5322,-0.5323,-0.5318,-0.5319,-0.5319,-0.5317,-0.5305,0,0,0,0,0,-0.5194,-0.5205,-0.522,-0.523,-0.5235,-0.5247,-0.5253,-0.5259,-0.527,-0.5274,-0.5284,-0.5295,-0.5306,-0.5312,-0.5323,-0.5336,-0.534,-0.5342,-0.5342,-0.5342,-0.5343,-0.5352,-0.5353,-0.534,-0.534,-0.534,0,0,-0.5194,-0.5205,-0.5211,-0.5229,-0.5237,-0.5248,-0.525,-0.5261,-0.5269,-0.5276,-0.5289,-0.5297,-0.5309,-0.5323,-0.5329,-0.5329,-0.5348,-0.5343,-0.5343,-0.5344,-0.5353,-0.5354,-0.5355,-0.5341,-0.5341,-0.5341,0,0,-0.5198,-0.5208,-0.5218,-0.5227,-0.5241,-0.5249,-0.5252,-0.5266,-0.5272,-0.5286,-0.5291,-0.5301,-0.5319,-0.5329,-0.5336,-0.5346,-0.5349,-0.5349,-0.5351,-0.536,-0.5361,-0.5362,-0.5366,-0.5368,-0.535,-0.535,-0.535,0,-0.5196,-0.5213,-0.5222,-0.5234,-0.5242,-0.5249,-0.526,-0.5268,-0.5284,-0.529,-0.5289,-0.5314,-0.5323,-0.5339,-0.5342,-0.5347,-0.5351,-0.5347,-0.536,-0.5361,-0.5362,-0.5367,-0.5368,-0.535,-0.535,-0.535,-0.535,0,-0.5209,-0.5221,-0.5227,-0.5244,-0.5253,-0.5264,-0.5275,-0.5283,-0.5288,-0.5296,-0.5311,-0.5322,-0.5336,-0.534,-0.5345,-0.5358,-0.5357,-0.5358,-0.5357,-0.5363,-0.5368,-0.5369,-0.535,-0.535,-0.535,-0.535,0,0,-0.5208,-0.5232,-0.5234,-0.5243,-0.526,-0.5269,-0.528,-0.5295,-0.5301,-0.5313,-0.5323,-0.5339,-0.5341,-0.5349,-0.5355,-0.5363,-0.5371,-0.5363,-0.5363,-0.5365,-0.5387,-0.5387,-0.5388,-0.5374,-0.5374,-0.5374,-0.5386,0,-0.5216,-0.5237,-0.5247,-0.5264,-0.5275,-0.5284,-0.5294,-0.5305,-0.5314,-0.5325,-0.5333,-0.5345,-0.5346,-0.5351,-0.5359,-0.5369,-0.5376,-0.5368,-0.5384,-0.5384,-0.5381,-0.539,-0.5389,-0.54,-0.5388,-0.5388,-0.5389,0,-0.5227,-0.524,-0.5258,-0.5275,-0.528,-0.5289,-0.5304,-0.5314,-0.5328,-0.5334,-0.5344,-0.535,-0.5363,-0.5361,-0.5379,-0.5373,-0.5381,-0.5387,-0.5387,-0.5389,-0.5387,-0.5393,-0.5404,-0.5405,-0.5391,-0.5391,-0.5391,0,-0.5225,-0.5247,-0.5261,-0.5268,-0.5288,-0.5295,-0.5303,-0.5317,-0.5325,-0.5338,-0.5344,-0.5358,-0.5366,-0.5376,-0.5386,-0.5384,-0.5404,-0.5403,-0.5409,-0.5409,-0.5413,-0.5413,-0.5425,-0.5417,-0.5417,-0.5417,-0.5417,0,-0.5232,-0.5243,-0.5261,-0.527,-0.5283,-0.5295,-0.5307,-0.5316,-0.5329,-0.534,-0.5347,-0.5357,-0.537,-0.5382,-0.5389,-0.5404,-0.5407,-0.5412,-0.5414,-0.5412,-0.5411,-0.5417,-0.5416,-0.5417,-0.5417,-0.5417,-0.5417,0,-0.5232,-0.5245,-0.5261,-0.5279,-0.5284,-0.5293,-0.5309,-0.5318,-0.5327,-0.5341,-0.5345,-0.536,-0.5374,-0.5385,-0.5404,-0.5409,-0.5425,-0.5427,-0.542,-0.5421,-0.5428,-0.5427,-0.5445,-0.5448,-0.5437,-0.5437,-0.5437,0,-0.5236,-0.5245,-0.5265,-0.5274,-0.5283,-0.5296,-0.5305,-0.5317,-0.5326,-0.5344,-0.5351,-0.5366,-0.5379,-0.5402,-0.5414,-0.5428,-0.5431,-0.5436,-0.5433,-0.5431,-0.5432,-0.5431,-0.5433,-0.5436,-0.5436,-0.5436,-0.5436,0,-0.5242,-0.5248,-0.5262,-0.5278,-0.5289,-0.5302,-0.5315,-0.5321,-0.5335,-0.5346,-0.5361,-0.5371,-0.5391,-0.5406,-0.5422,-0.5431,-0.5437,-0.5438,-0.544,-0.5438,-0.5434,-0.5437,-0.5422,-0.5437,-0.5437,-0.5437,-0.5437,-0.5437,-0.5245,-0.5254,-0.527,-0.5285,-0.5296,-0.5309,-0.5319,-0.533,-0.5343,-0.5361,-0.5367,-0.5383,-0.5398,-0.5421,-0.543,-0.5443,-0.5443,-0.5446,-0.5447,-0.5448,-0.5448,-0.5432,-0.5446,-0.5446,-0.5446,-0.5446,-0.5446,0,-0.5252,-0.5263,-0.5277,-0.5295,-0.5308,-0.5312,-0.5328,-0.5337,-0.5352,-0.5365,-0.5379,-0.5397,-0.5412,-0.5426,-0.5442,-0.545,-0.5453,-0.5454,-0.5454,-0.5456,-0.5447,-0.5443,-0.5452,-0.5452,-0.5452,-0.5452,-0.5452,-0.5452,-0.5257,-0.5273,-0.5281,-0.5303,-0.5314,-0.5331,-0.5339,-0.5351,-0.5362,-0.5383,-0.5396,-0.5405,-0.542,-0.5437,-0.5452,-0.5456,-0.5461,-0.5462,-0.5466,-0.5457,-0.5456,-0.5456,-0.5453,-0.5463,-0.5463,-0.5475,-0.5475,-0.5475]}]]